Weather History for Covington, KY

Change the Weather History Date:

Monday, April 14, 2014

  Actual Average Record
Temperature  
Mean Temperature 55 °F 54 °F  
Max Temperature 72 °F 64 °F 84 °F (1887)
Min Temperature 38 °F 43 °F 25 °F (1950)
Degree Days  
Heating Degree Days 10 12  
Month to date heating degree days 133 194  
Since 1 July heating degree days 5159 4687  
Cooling Degree Days 0 1  
Month to date cooling degree days 7 2  
Year to date cooling degree days 7 2  
Growing Degree Days 4 (Base 50)    
Moisture  
Dew Point 54 °F    
Average Humidity 67    
Maximum Humidity 86    
Minimum Humidity 47    
Precipitation  
Precipitation 0.42 in 0.12 in 1.72 in (1922)
Month to date precipitation 4.61 1.77  
Year to date precipitation 12.56 11.54  
Snow  
Snow T in 0.00 in 0.00 in ()
Month to date snowfall T 0.4  
Since 1 July snowfall 46.9 22.0  
Snow Depth 0.00 in    
Sea Level Pressure  
Sea Level Pressure 29.71 in    
Wind  
Wind Speed 16 mph (SW)    
Max Wind Speed 32 mph    
Max Gust Speed 46 mph    
Visibility 8 miles    
Events Rain    
T = Trace of Precipitation, MM = Missing Value Source: NWS Daily Summary

Daily Weather History Graph

Daily Weather History Graph

Search for Another Location

Airport:

Trip Planner

Search our weather history database for the weather conditions in past years. The results will help you decide how hot, cold, wet, or windy it might be!

Date:

Astronomy

Apr. 14, 2014 Rise Set
Actual Time 7:03 AM EDT 8:15 PM EDT
Civil Twilight 6:35 AM EDT 8:42 PM EDT
Nautical Twilight 6:03 AM EDT 9:15 PM EDT
Astronomical Twilight 5:28 AM EDT 9:50 PM EDT
Moon 7:53 PM EDT (4/14) 6:34 AM EDT (4/14)
Length of Visible Light 14h 06m
Length of Day
13h 11m
Full, 100% of the Moon is Illuminated
Apr 14
Full
Apr 15
Full
Apr 22
Last Quarter
Apr 29
New
May 6
First Quarter

Hourly Weather History & Observations

Time (EDT) Temp. Windchill Dew Point Humidity Pressure Visibility Wind Dir Wind Speed Gust Speed Precip Events Conditions
12:52 AM 70.0 °F - 48.9 °F 47% 29.73 in 10.0 mi South 11.5 mph - N/A   Overcast
1:52 AM 70.0 °F - 52.0 °F 53% 29.70 in 10.0 mi South 15.0 mph - N/A   Overcast
2:52 AM 71.1 °F - 52.0 °F 51% 29.68 in 10.0 mi South 13.8 mph - N/A   Overcast
3:52 AM 71.1 °F - 52.0 °F 51% 29.66 in 10.0 mi South 19.6 mph 24.2 mph N/A   Overcast
4:52 AM 71.6 °F - 53.6 °F 53% 29.69 in 10.0 mi SSW 17.3 mph 28.8 mph N/A Rain Light Rain
5:52 AM 63.0 °F - 57.9 °F 84% 29.67 in 10.0 mi South 13.8 mph 26.5 mph 0.02 in   Overcast
6:52 AM 63.0 °F - 57.0 °F 81% 29.68 in 10.0 mi SSW 16.1 mph 24.2 mph 0.00 in Rain Light Rain
7:52 AM 62.6 °F - 57.2 °F 82% 29.69 in 10.0 mi South 19.6 mph 25.3 mph N/A   Light Drizzle
8:52 AM 63.0 °F - 57.9 °F 84% 29.68 in 7.0 mi South 20.7 mph 31.1 mph 0.00 in Rain Light Rain
9:52 AM 63.0 °F - 57.0 °F 81% 29.68 in 9.0 mi SSW 25.3 mph 35.7 mph 0.02 in Rain Light Rain
10:52 AM 64.0 °F - 57.0 °F 78% 29.71 in 9.0 mi SSW 16.1 mph 34.5 mph 0.01 in Rain Light Rain
11:50 AM 64.4 °F - 57.2 °F 77% 29.75 in 7.0 mi SSW 23.0 mph 32.2 mph 0.00 in   Overcast
11:52 AM 63.0 °F - 57.9 °F 84% 29.73 in 3.0 mi SSW 23.0 mph 32.2 mph 0.00 in   Haze
12:16 PM 60.8 °F - 57.2 °F 88% 29.75 in 2.0 mi SSW 13.8 mph 31.1 mph 0.00 in Rain Light Rain
12:19 PM 60.8 °F - 59.0 °F 94% 29.75 in 2.0 mi SSW 11.5 mph 19.6 mph 0.00 in Rain Light Rain
12:48 PM 60.8 °F - 59.0 °F 94% 29.74 in 1.8 mi SSW 10.4 mph 21.9 mph 0.02 in Rain Light Rain
12:52 PM 61.0 °F - 59.0 °F 93% 29.72 in 1.5 mi SSW 9.2 mph 17.3 mph 0.02 in Rain Light Rain
1:08 PM 60.8 °F - 59.0 °F 94% 29.74 in 1.5 mi SSW 12.7 mph 21.9 mph 0.03 in Rain Light Rain
1:42 PM 60.8 °F - 59.0 °F 94% 29.74 in 6.0 mi SSW 12.7 mph 21.9 mph 0.09 in Rain Light Rain
1:52 PM 62.6 °F - 60.8 °F 94% 29.73 in 10.0 mi SSW 12.7 mph 21.9 mph N/A   Overcast
2:03 PM 62.6 °F - 60.8 °F 94% 29.73 in 10.0 mi SW 11.5 mph - N/A   Overcast
2:52 PM 64.9 °F - 59.0 °F 81% 29.70 in 10.0 mi SSW 11.5 mph 19.6 mph N/A   Overcast
3:22 PM 66.2 °F - 57.2 °F 73% 29.72 in 10.0 mi SW 13.8 mph 24.2 mph N/A   Overcast
3:40 PM 66.2 °F - 57.2 °F 73% 29.71 in 10.0 mi SSW 16.1 mph 24.2 mph N/A   Overcast
3:52 PM 66.0 °F - 57.9 °F 75% 29.69 in 10.0 mi SSW 17.3 mph 20.7 mph N/A   Overcast
4:52 PM 66.2 °F - 57.2 °F 73% 29.69 in 10.0 mi SW 12.7 mph - N/A   Overcast
5:52 PM 64.9 °F - 55.9 °F 73% 29.66 in 10.0 mi SW 9.2 mph - N/A   Overcast
6:52 PM 64.0 °F - 55.9 °F 75% 29.66 in 10.0 mi WSW 3.5 mph - N/A   Overcast
7:03 PM 60.8 °F - 53.6 °F 77% 29.67 in 10.0 mi NW 12.7 mph 21.9 mph 0.00 in Rain Light Rain
7:52 PM 57.0 °F - 53.1 °F 87% 29.68 in 6.0 mi NNW 13.8 mph - 0.00 in Rain Light Rain
8:05 PM 55.4 °F - 51.8 °F 88% 29.69 in 7.0 mi NNW 10.4 mph - 0.00 in Rain Light Rain
8:26 PM 53.6 °F - 50.0 °F 88% 29.71 in 8.0 mi NNW 19.6 mph - 0.00 in Rain Light Rain
8:52 PM 50.0 °F - 46.9 °F 89% 29.72 in 7.0 mi NW 16.1 mph - 0.04 in Rain Light Rain
9:52 PM 46.0 °F 39.3 °F 44.1 °F 93% 29.75 in 8.0 mi North 16.1 mph - 0.01 in   Light Drizzle
10:11 PM 44.6 °F 37.8 °F 42.8 °F 93% 29.75 in 5.0 mi NNW 15.0 mph - 0.02 in Rain Light Rain
10:52 PM 44.1 °F 37.4 °F 42.1 °F 93% 29.78 in 3.0 mi NNW 13.8 mph - 0.09 in Rain Rain
11:27 PM 42.8 °F 34.5 °F 39.2 °F 87% 29.78 in 4.0 mi NW 18.4 mph 26.5 mph 0.10 in Rain Rain
11:52 PM 39.9 °F 30.5 °F 37.0 °F 89% 29.77 in 7.0 mi NNW 19.6 mph 26.5 mph 0.10 in   Overcast